| time (UTC) | temp C | wind direction | speed KPH | gust KPH | rain 1hr cm | rain 24hr cm | rain mn cm | humidity % | barometer mb |
| 20260510190047 | 19 | 170 | 1.6 | 8.0 | 0.00 | 0.03 | 0.03 | 48 | 1015.5 |
| 20260510184544 | 18 | 82 | 4.8 | 8.0 | 0.00 | 0.03 | 0.03 | 45 | 1015.3 |
| 20260510183034 | 18 | 89 | 1.6 | 4.8 | 0.00 | 0.03 | 0.03 | 49 | 1015.5 |
| 20260510181550 | 17 | 100 | 1.6 | 14.5 | 0.00 | 0.03 | 0.03 | 48 | 1015.5 |
| 20260510180036 | 17 | 86 | 0.0 | 6.4 | 0.00 | 0.03 | 0.03 | 49 | 1015.0 |
| 20260510174529 | 17 | 79 | 1.6 | 11.3 | 0.00 | 0.03 | 0.03 | 50 | 1015.2 |
| 20260510173028 | 17 | 127 | 1.6 | 14.5 | 0.00 | 0.03 | 0.03 | 42 | 1015.4 |
| 20260510171528 | 17 | 92 | 3.2 | 8.0 | 0.00 | 0.03 | 0.03 | 42 | 1015.3 |
| 20260510170023 | 17 | 309 | 3.2 | 11.3 | 0.00 | 0.03 | 0.03 | 52 | 1015.5 |
| 20260510164519 | 16 | 235 | 0.0 | 11.3 | 0.00 | 0.03 | 0.03 | 59 | 1015.4 |
| 20260510163017 | 16 | 287 | 1.6 | 8.0 | 0.00 | 0.03 | 0.03 | 62 | 1015.2 |
| 20260510161513 | 16 | 343 | 1.6 | 9.7 | 0.00 | 0.03 | 0.03 | 64 | 1015.2 |
| 20260510160011 | 16 | 337 | 3.2 | 8.0 | 0.00 | 0.03 | 0.03 | 67 | 1015.0 |
| 20260510154510 | 16 | 337 | 1.6 | 6.4 | 0.00 | 0.03 | 0.03 | 69 | 1014.8 |
| 20260510153017 | 15 | 325 | 3.2 | 6.4 | 0.00 | 0.03 | 0.03 | 70 | 1014.6 |
| 20260510151505 | 15 | 267 | 3.2 | 9.7 | 0.00 | 0.03 | 0.03 | 72 | 1014.6 |
| 20260510150002 | 15 | 72 | 1.6 | 6.4 | 0.00 | 0.03 | 0.03 | 78 | 1014.2 |
| 20260510144615 | 14 | 217 | 0.0 | 6.4 | 0.00 | 0.03 | 0.03 | 79 | 1014.2 |
| 20260510143058 | 13 | 340 | 0.0 | 3.2 | 0.00 | 0.03 | 0.03 | 80 | 1014.2 |
| 20260510141556 | 13 | 126 | 0.0 | 3.2 | 0.00 | 0.03 | 0.03 | 82 | 1014.0 |
| 20260510140057 | 13 | 320 | 1.6 | 3.2 | 0.00 | 0.03 | 0.03 | 83 | 1014.2 |
| 20260510134553 | 12 | 309 | 3.2 | 8.0 | 0.03 | 0.05 | 0.03 | 85 | 1014.1 |
| 20260510133051 | 12 | 307 | 0.0 | 3.2 | 0.03 | 0.05 | 0.03 | 88 | 1013.4 |
| 20260510131549 | 12 | 231 | 0.0 | 0.0 | 0.03 | 0.05 | 0.03 | 89 | 1013.3 |
| 20260510130048 | 12 | 248 | 0.0 | 3.2 | 0.03 | 0.05 | 0.03 | 88 | 1013.2 |
| 20260510124548 | 12 | 319 | 0.0 | 1.6 | 0.00 | 0.05 | 0.00 | 87 | 1013.2 |
| 20260510123051 | 12 | 263 | 0.0 | 0.0 | 0.00 | 0.05 | 0.00 | 87 | 1013.0 |
| 20260510121543 | 12 | 229 | 0.0 | 0.0 | 0.00 | 0.05 | 0.00 | 89 | 1012.6 |
| 20260510120042 | 12 | 238 | 0.0 | 0.0 | 0.00 | 0.05 | 0.00 | 89 | 1012.7 |
| 20260510114541 | 12 | 279 | 0.0 | 0.0 | 0.00 | 0.15 | 0.00 | 89 | 1012.5 |
| 20260510113040 | 11 | 279 | 0.0 | 3.2 | 0.00 | 0.15 | 0.00 | 89 | 1012.3 |
| 20260510111544 | 11 | 250 | 0.0 | 4.8 | 0.00 | 0.15 | 0.00 | 90 | 1011.9 |
| 20260510110035 | 11 | 320 | 0.0 | 0.0 | 0.00 | 0.15 | 0.00 | 90 | 1011.4 |
| 20260510104543 | 11 | 321 | 0.0 | 4.8 | 0.00 | 0.20 | 0.00 | 91 | 1011.0 |
| 20260510103030 | 11 | 232 | 0.0 | 0.0 | 0.00 | 0.20 | 0.00 | 92 | 1010.6 |
| 20260510101528 | 11 | 231 | 0.0 | 0.0 | 0.00 | 0.20 | 0.00 | 91 | 1010.5 |
| 20260510100025 | 11 | 230 | 0.0 | 0.0 | 0.00 | 0.20 | 0.00 | 91 | 1010.1 |
| 20260510094523 | 11 | 231 | 0.0 | 0.0 | 0.00 | 0.25 | 0.00 | 91 | 1009.8 |
| 20260510093020 | 11 | 232 | 0.0 | 0.0 | 0.00 | 0.25 | 0.00 | 91 | 1009.5 |
| 20260510091525 | 11 | 232 | 0.0 | 0.0 | 0.00 | 0.25 | 0.00 | 91 | 1009.1 |
| 20260510090016 | 11 | 232 | 0.0 | 0.0 | 0.00 | 0.25 | 0.00 | 90 | 1009.2 |
| 20260510084530 | 11 | 232 | 0.0 | 0.0 | 0.00 | 0.28 | 0.00 | 90 | 1008.9 |
| 20260510083012 | 11 | 232 | 0.0 | 0.0 | 0.00 | 0.28 | 0.00 | 89 | 1008.6 |
| 20260510081528 | 11 | 232 | 0.0 | 0.0 | 0.00 | 0.28 | 0.00 | 90 | 1008.8 |
| 20260510080011 | 11 | 232 | 0.0 | 0.0 | 0.00 | 0.28 | 0.00 | 89 | 1008.8 |
| 20260510074507 | 12 | 231 | 0.0 | 0.0 | 0.00 | 0.30 | 0.00 | 89 | 1008.8 |
| 20260510073007 | 12 | 231 | 0.0 | 0.0 | 0.00 | 0.30 | 0.00 | 88 | 1008.5 |
| 20260510071506 | 12 | 232 | 0.0 | 0.0 | 0.00 | 0.30 | 0.00 | 87 | 1008.5 |
| 20260510070008 | 12 | 231 | 0.0 | 0.0 | 0.00 | 0.30 | 0.00 | 87 | 1008.6 |
| 20260510064503 | 12 | 231 | 0.0 | 0.0 | 0.00 | 0.30 | 0.00 | 86 | 1008.7 |
| 20260510063003 | 13 | 231 | 0.0 | 0.0 | 0.00 | 0.30 | 0.00 | 86 | 1008.7 |
| 20260510061505 | 12 | 232 | 0.0 | 0.0 | 0.00 | 0.30 | 0.00 | 88 | 1008.8 |
| 20260510060101 | 12 | 229 | 0.0 | 0.0 | 0.00 | 0.30 | 0.00 | 87 | 1008.7 |
| 20260510054603 | 12 | 229 | 0.0 | 0.0 | 0.00 | 0.30 | 0.00 | 86 | 1008.5 |
| 20260510053100 | 12 | 229 | 0.0 | 1.6 | 0.00 | 0.30 | 0.00 | 87 | 1008.7 |
| 20260510051558 | 12 | 187 | 0.0 | 3.2 | 0.00 | 0.30 | 0.00 | 86 | 1008.5 |
| 20260510044558 | 12 | 219 | 0.0 | 0.0 | 0.00 | 0.30 | 0.00 | 85 | 1008.3 |
| 20260510043100 | 12 | 221 | 0.0 | 0.0 | 0.00 | 0.30 | 0.00 | 83 | 1008.2 |
| 20260510041547 | 13 | 226 | 0.0 | 1.6 | 0.00 | 0.30 | 0.00 | 81 | 1008.2 |
| 20260510040047 | 13 | 193 | 0.0 | 3.2 | 0.00 | 0.30 | 0.00 | 81 | 1008.0 |
| 20260510034550 | 13 | 146 | 0.0 | 1.6 | 0.00 | 0.30 | 0.30 | 81 | 1008.0 |
| 20260510033042 | 13 | 158 | 0.0 | 3.2 | 0.00 | 0.30 | 0.30 | 81 | 1008.1 |
| 20260510031556 | 13 | 158 | 0.0 | 3.2 | 0.00 | 0.30 | 0.30 | 79 | 1007.9 |
| 20260510030041 | 13 | 166 | 0.0 | 0.0 | 0.00 | 0.30 | 0.30 | 79 | 1007.8 |
| 20260510024540 | 13 | 155 | 0.0 | 3.2 | 0.00 | 0.30 | 0.30 | 79 | 1007.8 |
| 20260510023044 | 13 | 146 | 0.0 | 4.8 | 0.00 | 0.30 | 0.30 | 80 | 1007.6 |
| 20260510021540 | 13 | 139 | 0.0 | 3.2 | 0.00 | 0.30 | 0.30 | 82 | 1007.3 |
| 20260510020038 | 13 | 155 | 0.0 | 0.0 | 0.00 | 0.30 | 0.30 | 80 | 1007.2 |
| 20260510014537 | 13 | 156 | 0.0 | 1.6 | 0.00 | 0.30 | 0.30 | 78 | 1007.1 |
| 20260510013045 | 14 | 20 | 0.0 | 0.0 | 0.00 | 0.30 | 0.30 | 76 | 1006.9 |
| 20260510011537 | 15 | 20 | 0.0 | 0.0 | 0.00 | 0.30 | 0.30 | 74 | 1006.8 |
| 20260510010036 | 15 | 20 | 0.0 | 0.0 | 0.00 | 0.30 | 0.30 | 73 | 1006.6 |
| 20260510004537 | 16 | 18 | 0.0 | 0.0 | 0.00 | 0.30 | 0.30 | 70 | 1006.4 |
| 20260510003036 | 17 | 29 | 0.0 | 3.2 | 0.00 | 0.30 | 0.30 | 67 | 1006.2 |
| 20260510001534 | 17 | 232 | 0.0 | 0.0 | 0.00 | 0.30 | 0.30 | 65 | 1006.0 |
| 20260510000036 | 18 | 141 | 0.0 | 1.6 | 0.00 | 0.30 | 0.30 | 62 | 1005.9 |
| 20260509234538 | 18 | 187 | 0.0 | 9.7 | 0.00 | 0.30 | 0.30 | 60 | 1005.8 |
| 20260509233034 | 19 | 167 | 1.6 | 11.3 | 0.00 | 0.30 | 0.30 | 56 | 1005.7 |
| 20260509231533 | 20 | 201 | 1.6 | 8.0 | 0.00 | 0.30 | 0.30 | 55 | 1005.6 |
| 20260509230033 | 20 | 187 | 1.6 | 8.0 | 0.00 | 0.30 | 0.30 | 56 | 1005.5 |
| 20260509224531 | 20 | 180 | 1.6 | 9.7 | 0.00 | 0.30 | 0.30 | 55 | 1005.5 |
| 20260509223034 | 21 | 238 | 0.0 | 14.5 | 0.00 | 0.30 | 0.30 | 54 | 1005.5 |
| 20260509221530 | 21 | 110 | 3.2 | 12.9 | 0.00 | 0.30 | 0.30 | 53 | 1005.7 |
| 20260509220028 | 21 | 121 | 0.0 | 11.3 | 0.00 | 0.30 | 0.30 | 54 | 1005.8 |
| 20260509214529 | 21 | 219 | 3.2 | 11.3 | 0.00 | 0.30 | 0.30 | 53 | 1005.9 |
| 20260509213027 | 21 | 127 | 1.6 | 16.1 | 0.00 | 0.30 | 0.30 | 53 | 1005.9 |
| 20260509211525 | 21 | 127 | 1.6 | 11.3 | 0.00 | 0.30 | 0.30 | 53 | 1005.9 |
| 20260509210028 | 21 | 307 | 4.8 | 12.9 | 0.00 | 0.30 | 0.30 | 53 | 1005.8 |
| 20260509204522 | 21 | 148 | 1.6 | 14.5 | 0.00 | 0.30 | 0.30 | 54 | 1006.0 |
| 20260509203019 | 21 | 125 | 1.6 | 11.3 | 0.00 | 0.30 | 0.30 | 54 | 1006.2 |
| 20260509201518 | 21 | 159 | 3.2 | 11.3 | 0.00 | 0.30 | 0.30 | 57 | 1006.4 |
| 20260509200016 | 21 | 186 | 4.8 | 12.9 | 0.00 | 0.30 | 0.30 | 56 | 1006.6 |
| 20260509194520 | 21 | 62 | 1.6 | 11.3 | 0.00 | 0.30 | 0.30 | 56 | 1006.8 |
| 20260509193110 | 21 | 199 | 4.8 | 9.7 | 0.00 | 0.30 | 0.30 | 56 | 1007.0 |
| 20260509191509 | 21 | 165 | 1.6 | 12.9 | 0.00 | 0.30 | 0.30 | 59 | 1007.1 |